User: anonymous   Login
Location: Coupvray
(48.8929°N, 2.7967°E)
Time: 18:53:23
(UTC+00:00)
Language:

Cosmos 2360 - Orbit

View from above orbital plane
View from above orbital plane
View from above satellite
View from above satellite

Ground track
Ground track

The orbit data is extracted from the following two-line orbital elements,

1 25406U 98045A   20262.80412016 +.00000003 +00000-0 +27930-4 0  9995
2 25406 070.8128 028.7626 0009454 226.6946 133.3387 14.12346514141873
Epoch (UTC): 18 September 2020 19:17:55
Eccentricity: 0.0009454
inclination: 70.8128°
perigee height: 844 km
apogee height: 858 km
right ascension of ascending node: 28.7626°
argument of perigee: 226.6946°
revolutions per day: 14.12346514
mean anomaly at epoch: 133.3387°
orbit number at epoch: 14187

The dashed part of the orbit path shows where the satellite is in the earth's shadow,  

DLR